Weather History for Lander, WY

Change the Weather History Date:

Wednesday, May 22, 2013

  Actual Average Record
Temperature  
Mean Temperature 55 °F 55 °F  
Max Temperature 69 °F 69 °F 83 °F (1967)
Min Temperature 41 °F 42 °F 30 °F (1953)
Degree Days  
Heating Degree Days 10 10  
Month to date heating degree days 244 290  
Since 1 July heating degree days 7304 7544  
Cooling Degree Days 0 0  
Month to date cooling degree days 9 0  
Year to date cooling degree days 9 0  
Growing Degree Days 4 (Base 50)    
Moisture  
Dew Point 40 °F    
Average Humidity 59    
Maximum Humidity 79    
Minimum Humidity 39    
Precipitation  
Precipitation 0.00 in 0.08 in 1.46 in (1958)
Month to date precipitation 1.83 1.60  
Year to date precipitation 7.37 5.62  
Snow  
Snow 0.00 in 0.10 in - ()
Month to date snowfall 10.5 4.5  
Since 1 July snowfall 111.1 91.0  
Snow Depth 0.00 in    
Sea Level Pressure  
Sea Level Pressure 29.74 in    
Wind  
Wind Speed 6 mph (NW)    
Max Wind Speed 22 mph    
Max Gust Speed 26 mph    
Visibility 10 miles    
Events      
T = Trace of Precipitation, MM = Missing Value Source: NWS Daily Summary

Daily Weather History Graph

Daily Weather History Graph

Search for Another Location

Airport:

Trip Planner

Search our weather history database for the weather conditions in past years. The results will help you decide how hot, cold, wet, or windy it might be!

Date:

Astronomy

May. 22, 2013 Rise Set
Actual Time 5:45 AM MDT 8:38 PM MDT
Civil Twilight 5:12 AM MDT 9:11 PM MDT
Nautical Twilight 4:29 AM MDT 9:54 PM MDT
Astronomical Twilight 3:40 AM MDT 10:43 PM MDT
Moon 6:01 PM MDT (5/22) 3:55 AM MDT (5/22)
Length of Visible Light 15h 59m
Length of Day
14h 52m
Waxing Gibbous, 92% of the Moon is Illuminated
May 22
Waxing Gibbous
May 24
Full
May 31
Last Quarter
Jun 8
New
Jun 16
First Quarter

Hourly Weather History & Observations

Time (MDT) Temp. Windchill Dew Point Humidity Pressure Visibility Wind Dir Wind Speed Gust Speed Precip Events Conditions
12:53 AM 48.9 °F - 37.9 °F 66% 29.79 in 10.0 mi NNW 5.8 mph - N/A   Clear
1:53 AM 46.9 °F - 37.0 °F 68% 29.81 in 10.0 mi NW 9.2 mph - N/A   Clear
2:53 AM 46.0 °F 40.6 °F 36.0 °F 68% 29.81 in 10.0 mi WNW 11.5 mph - N/A   Clear
3:53 AM 44.1 °F 39.0 °F 36.0 °F 73% 29.82 in 10.0 mi WNW 9.2 mph - N/A   Partly Cloudy
4:53 AM 43.0 °F 38.8 °F 36.0 °F 76% 29.83 in 10.0 mi WNW 6.9 mph - N/A   Clear
5:53 AM 41.0 °F 37.1 °F 35.1 °F 79% 29.83 in 10.0 mi West 5.8 mph - N/A   Clear
6:53 AM 44.1 °F 40.1 °F 37.0 °F 76% 29.83 in 10.0 mi WNW 6.9 mph - N/A   Clear
7:53 AM 46.9 °F - 37.9 °F 71% 29.82 in 10.0 mi NNW 4.6 mph - N/A   Clear
8:53 AM 50.0 °F - 39.9 °F 68% 29.82 in 10.0 mi Variable 3.5 mph - N/A   Clear
9:53 AM 53.1 °F - 39.9 °F 61% 29.80 in 10.0 mi Variable 3.5 mph - N/A   Clear
10:53 AM 55.0 °F - 39.9 °F 57% 29.78 in 10.0 mi Variable 3.5 mph - N/A   Clear
11:53 AM 57.0 °F - 41.0 °F 55% 29.78 in 10.0 mi Variable 3.5 mph - N/A   Clear
12:53 PM 60.1 °F - 42.1 °F 51% 29.75 in 10.0 mi NE 4.6 mph - N/A   Clear
1:53 PM 64.0 °F - 44.1 °F 48% 29.72 in 10.0 mi ENE 6.9 mph - N/A   Clear
2:53 PM 64.9 °F - 43.0 °F 45% 29.69 in 10.0 mi Variable 3.5 mph - N/A   Partly Cloudy
3:53 PM 66.0 °F - 45.0 °F 47% 29.67 in 10.0 mi West 6.9 mph - N/A   Scattered Clouds
4:53 PM 68.0 °F - 44.1 °F 42% 29.63 in 10.0 mi Variable 4.6 mph - N/A   Clear
5:53 PM 68.0 °F - 43.0 °F 40% 29.63 in 10.0 mi Calm Calm - N/A   Clear
6:53 PM 68.0 °F - 45.0 °F 43% 29.62 in 10.0 mi NE 4.6 mph - N/A   Clear
7:53 PM 64.0 °F - 39.9 °F 41% 29.63 in 10.0 mi SE 11.5 mph 21.9 mph N/A   Clear
8:53 PM 63.0 °F - 41.0 °F 45% 29.64 in 10.0 mi SE 18.4 mph 26.5 mph N/A   Partly Cloudy
9:53 PM 60.1 °F - 42.1 °F 51% 29.66 in 10.0 mi NW 6.9 mph - N/A   Clear
10:53 PM 60.1 °F - 39.9 °F 47% 29.68 in 10.0 mi Variable 3.5 mph - N/A   Clear
11:53 PM 57.0 °F - 39.0 °F 51% 29.70 in 10.0 mi Variable 4.6 mph 19.6 mph N/A   Clear